TimeCST,TemperatureF,Dew PointF,Humidity,Sea Level PressureIn,VisibilityMPH,Wind Direction,Wind SpeedMPH,Gust SpeedMPH,PrecipitationIn,Events,Conditions,WindDirDegrees,DateUTC
12:53 AM,3.0,-4.0,73,30.22,10.0,NNW,12.7,19.6,N/A,,Clear,330,2014-01-15 06:53:00
1:53 AM,1.9,-5.1,72,30.21,10.0,NNW,6.9,-,N/A,,Clear,330,2014-01-15 07:53:00
2:53 AM,-0.0,-6.0,76,30.22,10.0,NW,4.6,-,N/A,,Clear,320,2014-01-15 08:53:00
3:16 AM,-2.2,-7.6,78,30.12,10.0,NW,5.8,-,N/A,,Mostly Cloudy,310,2014-01-15 09:16:00
3:53 AM,1.9,-4.0,76,30.21,10.0,NW,5.8,-,N/A,,Overcast,320,2014-01-15 09:53:00
4:53 AM,5.0,-0.9,76,30.21,10.0,NW,4.6,-,N/A,,Overcast,310,2014-01-15 10:53:00
5:53 AM,5.0,-0.9,76,30.19,10.0,WNW,3.5,-,N/A,,Overcast,290,2014-01-15 11:53:00
6:53 AM,6.1,-0.9,73,30.18,10.0,WSW,5.8,-,N/A,,Overcast,250,2014-01-15 12:53:00
7:53 AM,5.0,-0.9,76,30.16,10.0,SW,5.8,-,N/A,,Overcast,230,2014-01-15 13:53:00
8:53 AM,5.0,-0.9,76,30.15,10.0,SW,5.8,-,N/A,,Overcast,220,2014-01-15 14:53:00
9:53 AM,6.1,-0.0,76,30.13,10.0,SSW,10.4,-,N/A,,Overcast,210,2014-01-15 15:53:00
10:46 AM,6.8,1.4,79,29.98,10.0,South,10.4,-,N/A,,Scattered Clouds,190,2014-01-15 16:46:00
10:53 AM,6.1,1.0,80,30.08,10.0,SSW,11.5,-,N/A,,Partly Cloudy,200,2014-01-15 16:53:00
11:53 AM,8.1,1.9,76,30.00,10.0,South,13.8,-,N/A,,Clear,190,2014-01-15 17:53:00
12:53 PM,10.0,3.0,73,29.94,10.0,South,15.0,-,N/A,,Overcast,190,2014-01-15 18:53:00
1:53 PM,10.9,3.9,73,29.89,10.0,South,16.1,-,N/A,,Overcast,180,2014-01-15 19:53:00
2:53 PM,12.0,6.1,77,29.83,10.0,SSE,13.8,21.9,N/A,,Overcast,160,2014-01-15 20:53:00
3:24 PM,12.2,6.8,79,29.71,2.0,South,15.0,23.0,0.00,Snow,Light Snow,180,2014-01-15 21:24:00
3:33 PM,12.2,6.8,79,29.70,1.2,South,15.0,24.2,0.00,Snow,Light Snow,180,2014-01-15 21:33:00
3:48 PM,12.2,6.8,79,29.68,0.5,South,17.3,24.2,0.00,Snow,Snow,170,2014-01-15 21:48:00
3:53 PM,12.0,8.1,84,29.76,0.5,South,17.3,-,0.00,Fog-Snow,Snow,170,2014-01-15 21:53:00
4:13 PM,12.2,8.6,85,29.66,1.2,South,15.0,-,0.01,Snow,Light Snow,180,2014-01-15 22:13:00
4:22 PM,12.2,8.6,85,29.66,3.0,South,15.0,21.9,0.01,Snow,Light Snow,170,2014-01-15 22:22:00
4:48 PM,14.0,8.6,79,29.62,1.8,South,19.6,24.2,0.01,Snow,Light Snow,170,2014-01-15 22:48:00
4:53 PM,14.0,9.0,80,29.70,0.8,South,19.6,-,0.01,Snow,Light Snow,170,2014-01-15 22:53:00
5:08 PM,14.0,10.4,86,29.57,1.0,South,19.6,-,0.01,Snow,Light Snow,170,2014-01-15 23:08:00
5:17 PM,14.0,10.4,86,29.58,0.8,South,16.1,25.3,0.01,Snow,Light Snow,180,2014-01-15 23:17:00
5:28 PM,15.8,10.4,79,29.58,1.5,South,18.4,-,0.01,Snow,Light Snow,180,2014-01-15 23:28:00
5:30 PM,15.8,10.4,79,29.58,2.0,South,16.1,-,0.01,Snow,Light Snow,180,2014-01-15 23:30:00
5:39 PM,15.8,10.4,79,29.59,5.0,South,17.3,-,0.01,,Overcast,190,2014-01-15 23:39:00
5:53 PM,16.0,12.0,84,29.66,6.0,South,17.3,-,0.02,,Overcast,180,2014-01-15 23:53:00
6:10 PM,15.8,12.2,86,29.53,6.0,South,16.1,26.5,N/A,,Overcast,180,2014-01-16 00:10:00
6:53 PM,17.1,12.9,84,29.57,9.0,South,17.3,23.0,N/A,,Overcast,180,2014-01-16 00:53:00
7:45 PM,17.6,14.0,86,29.46,10.0,South,17.3,-,N/A,,Mostly Cloudy,190,2014-01-16 01:45:00
7:53 PM,18.0,14.0,84,29.55,10.0,South,13.8,-,N/A,,Mostly Cloudy,190,2014-01-16 01:53:00
8:53 PM,21.0,17.1,85,29.50,3.0,South,11.5,-,0.01,Snow,Light Snow,180,2014-01-16 02:53:00
9:53 PM,19.0,15.1,85,29.46,10.0,SSW,9.2,-,0.00,,Clear,200,2014-01-16 03:53:00
10:53 PM,19.0,15.1,85,29.44,10.0,SSW,8.1,-,N/A,,Clear,200,2014-01-16 04:53:00
11:53 PM,25.0,21.0,85,29.42,10.0,WSW,8.1,-,N/A,,Scattered Clouds,240,2014-01-16 05:53:00